Voltar ao catálogo

FENGYUN 1C DEB

AtivoPO
NORAD 29897·DEBRIS·🇨🇳 China

Lançado May 10, 1999 de Taiyuan Satellite Launch Center

Loading…

Próximas Passagens (próximas 24 horas)

TLE

AtualizadoSource: Space-Track

Época: Sep 14, 2026, 00:02 UTC

1 29897U 99025GT  26257.00195904  .00001173  00000-0  12531-2 0  9996
2 29897  98.6108  93.0065 0295903 141.2344  13.7285 13.58129470966758

Acompanhe FENGYUN 1C DEB em tempo real com AllMySat

Download on the App Store